This is the latest recevied weather packets stored in our database for station/object S51UL-6. If no packets are shown the sender has not sent any weather packets the latest 10 day(s).
| Time | Temp. | Humidity | Pressure | Rain* | Wind** | Luminosity | Snow |
|---|---|---|---|---|---|---|---|
| 1777639776 | 20° C | 34% | 1027.7 hPa | 0 mm | - | - | - |
| 1777639475 | 20° C | 33% | 1027.8 hPa | 0 mm | - | - | - |
| 1777639176 | 21.11° C | 32% | 1027.7 hPa | 0 mm | - | - | - |
| 1777638576 | 21.11° C | 35% | 1027.7 hPa | 0 mm | - | - | - |
| 1777638275 | 20.56° C | 34% | 1027.7 hPa | 0 mm | - | - | - |
| 1777637975 | 21.11° C | 33% | 1027.9 hPa | 0 mm | - | - | - |
| 1777637676 | 21.11° C | 33% | 1027.9 hPa | 0 mm | - | - | - |
| 1777637076 | 21.67° C | 33% | 1028.2 hPa | 0 mm | - | - | - |
| 1777636776 | 21.67° C | 33% | 1028.1 hPa | 0 mm | - | - | - |
| 1777636477 | 21.67° C | 32% | 1028.2 hPa | 0 mm | - | - | - |
| 1777636176 | 22.22° C | 32% | 1028.1 hPa | 0 mm | - | - | - |
| 1777635877 | 22.22° C | 33% | 1028.2 hPa | 0 mm | - | - | - |
| 1777634976 | 22.22° C | 32% | 1028.6 hPa | 0 mm | - | - | - |
| 1777634377 | 22.78° C | 33% | 1028.5 hPa | 0 mm | - | - | - |
| 1777633778 | 22.78° C | 33% | 1028.5 hPa | 0 mm | - | - | - |
| 1777633177 | 21.11° C | 36% | 1028.6 hPa | 0 mm | - | - | - |
| 1777632577 | 18.89° C | 37% | 1028.9 hPa | 0 mm | - | - | - |
| 1777631977 | 18.33° C | 38% | 1028.9 hPa | 0 mm | - | - | - |
| 1777631377 | 18.33° C | 38% | 1029 hPa | 0 mm | - | - | - |
| 1777630477 | 18.33° C | 38% | 1029 hPa | 0 mm | - | - | - |
| 1777629877 | 17.22° C | 38% | 1029.2 hPa | 0 mm | - | - | - |
| 1777628978 | 17.22° C | 39% | 1029.1 hPa | 0 mm | - | - | - |
| 1777628678 | 17.22° C | 39% | 1029.1 hPa | 0 mm | - | - | - |
| 1777628378 | 17.22° C | 39% | 1029.3 hPa | 0 mm | - | - | - |
| 1777628078 | 17.22° C | 39% | 1029.4 hPa | 0 mm | - | - | - |
* Rain latest hour (hover to see other rain measurements)
** Current wind speed in m/s (hover to see current wind gust speed)